SCOUT B DEB, 2800

Orbit data source: Space-Track

SCOUT B DEB, 2800 is space debris in LEO originally from a launch on Thu, 04 Aug 1966 UTC launched from the Air Force Western Test Range (AFWTR). Debris objects in space refer to the collection of defunct objects orbiting the Earth. Examples of debris include non-operational satellites, rocket bodies, and fragments generated from explosions, collisions, or faulty payload assembly.

Loading next visibility...
SCOUT B DEB details
Identifier
2800, 1966-070D
Orbit
LEO
Last TLE update1 day ago
Origin
Flag of USUSAF SSD (US)
ManufacturerUnknown
MissionSpacecraft
Bus & MotorUnknown
MassUnknown
Launch date (UTC)
1966-08-04 (58 years ago)
Launch vehicleUnknown
Launch site
Air Force Western Test Range (AFWTR)
Object type
Payload
Rocket body
Debris
Shape & HBRUnknown
Radar Cross SectionSmall (<0.1 m²)

Expand to show TLE details & history

TLE from 1 day ago
0 SCOUT B DEB
1 02800U 66070D   24355.54275885  .00007830  00000-0  10326-2 0  9994
2 02800  81.4069 284.6125 1428338 159.0473 207.5803 12.33916402517465
Epoch: 2024-12-20T13:01Z
Definitive object data (Epoch: 2024-12-20T13:01:34.364Z)
Latitude-0.00003°
Longitude-0.38746°
Altitude2,565.887 km
Speed6.227 km/s
True Right ascension18h 58m 26s
True Declination0° 00' 00"
Sunlit
Object was in daylight at TLE epoch
Visualization TLE readout
Latitude-13.48501°
Longitude-3.22129°
Altitude2,646.262 km
Speed6.163 km/s
Apparent Right ascension20h 50m 12s
Apparent Declination-32° 59' 19"
Sunlit
Object is in daylight
Visualization observer readout
Local Sidereal Time13:16:00
Azimuth104.757° ESE
Elevation-37.332°
Doppler factor1
Orbital elements
Apogee altitude2,659.349 km
Perigee altitude400.301 km
Semi-major axis7,907.962 km
Eccentricity0.1428338
Inclination81.4069°
RAAN284.6125°
Arg. of periapsis159.0473°
True anomaly201.05584°
Mean anomaly207.5803°
Eccentric anomaly204.22263°
Mean motion3.08636 °/min
BSTAR0.0010326
Orbital period116.64 mins
Loading maneuver chart data...
Loading historical data...
Loading historical data...
Loading historical data...
Loading historical data...
Loading historical data...
Loading historical data...
Loading historical data...
Other satellites on launch #70 in the year 1966 (1966-08-04 UTC)

SCOUT B DEB Visibility forecast

Observer location: undefined°, undefined

Span
Click to sort rows by Start time (UTC) header in descending order
Start Az.
Max El. time (UTC)
Max El. Az.
Max El.
End time (UTC)
End Az.
15 mins2024-12-21 18:19:54.521Z129.218° SE2024-12-21 18:27:54.521Z88.332° E21.947°2024-12-21 18:34:54.521Z40.196° NE
20 mins2024-12-21 20:13:54.521Z188.036° SSW2024-12-21 20:25:54.521Z306.6° NW44.895°2024-12-21 20:33:54.521Z7.738° NNE
13 mins2024-12-21 22:16:54.521Z251.385° W2024-12-21 22:23:54.521Z290.326° WNW19.438°2024-12-21 22:29:54.521Z333.78° NNW
|